Cfl Performer — PHLY — position and weather

sailwx.info

Track history (hours):
 
Tides and Currents Weather Stations Pressure Air Temp Water Temp Dewpoint Dewpoint Depression Visibility Wind Speed Wind Dir Waves Ship Positions

Cfl Performer

Last reported at 2014-Sep-22 03:31 UTC. Time now 2014-Sep-22 04:18 UTC.
Position N 36°56' E 001°42'.

Length 117 m; draft 6.2 m.

Type: Cargo ship. MMSI: 244989000.

Date/timePositionNaut miles runAvg speedWind from/ knotsBaromVisibWave heightAir tempDewpointWater temp
2014-Sep-22 03:31N 36°56' E 001°42'2211.3
2014-Sep-22 01:33N 36°52' E 001°15'1110.9
2014-Sep-22 00:31N 36°50' E 001°01'1110.7
2014-Sep-21 23:33N 36°48' E 000°48'1010.5
2014-Sep-21 22:33N 36°46' E 000°35'1110.8
2014-Sep-21 21:32N 36°44' E 000°22'1110.7
2014-Sep-21 20:33N 36°42' E 000°09'1410.7
2014-Sep-21 19:17N 36°40' W 000°07'2910.5
2014-Sep-21 16:33N 36°35' W 000°43'22310.6
2014-Sep-20 19:29N 35°56' W 005°15'4 4.0
2014-Sep-20 18:31N 35°54' W 005°18'0 0.0
2014-Sep-20 17:31N 35°54' W 005°18'0 0.0
2014-Sep-20 16:31N 35°54' W 005°18'0 0.0
2014-Sep-20 15:31N 35°54' W 005°18'2 1.8
2014-Sep-20 14:33N 35°55' W 005°20'238 9.1
2014-Sep-19 12:29N 37°40' W 009°47'  
2014-Sep-16 23:24N 43°40' W 006°13'910.4
2014-Sep-16 22:33N 43°38' W 006°01'  
Track history (hours):
 
Tides and Currents Weather Stations Pressure Air Temp Water Temp Dewpoint Dewpoint Depression Visibility Wind Speed Wind Dir Waves Ship Positions

Cfl Performer

Last reported at 2014-Sep-22 03:31 UTC. Time now 2014-Sep-22 04:18 UTC.
Position N 36°56' E 001°42'.

Length 117 m; draft 6.2 m.

Type: Cargo ship. MMSI: 244989000.

Date/timePositionNaut miles runAvg speedWind from/ knotsBaromVisibWave heightAir tempDewpointWater temp
2014-Sep-22 03:31N 36°56' E 001°42'2211.3
2014-Sep-22 01:33N 36°52' E 001°15'1110.9
2014-Sep-22 00:31N 36°50' E 001°01'1110.7
2014-Sep-21 23:33N 36°48' E 000°48'1010.5
2014-Sep-21 22:33N 36°46' E 000°35'1110.8
2014-Sep-21 21:32N 36°44' E 000°22'1110.7
2014-Sep-21 20:33N 36°42' E 000°09'1410.7
2014-Sep-21 19:17N 36°40' W 000°07'2910.5
2014-Sep-21 16:33N 36°35' W 000°43'22310.6
2014-Sep-20 19:29N 35°56' W 005°15'4 4.0
2014-Sep-20 18:31N 35°54' W 005°18'0 0.0
2014-Sep-20 17:31N 35°54' W 005°18'0 0.0
2014-Sep-20 16:31N 35°54' W 005°18'0 0.0
2014-Sep-20 15:31N 35°54' W 005°18'2 1.8
2014-Sep-20 14:33N 35°55' W 005°20'238 9.1
2014-Sep-19 12:29N 37°40' W 009°47'  
2014-Sep-16 23:24N 43°40' W 006°13'910.4
2014-Sep-16 22:33N 43°38' W 006°01'  

Dump ship's entire track history